User: anonymous   Login
Location: Columbia
(38.9520°N, 92.3340°W)
Time: 10:05:12
(UTC-05:00)
Language:

SJ-11-01 - Orbit

View from above orbital plane
View from above orbital plane
View from above satellite
View from above satellite

Ground track
Ground track

The orbit data is extracted from the following two-line orbital elements,

1 36088U 09061A   16240.15959651  .00000070  00000-0  24320-4 0  9997
2 36088  98.1818 286.6787 0012709 101.7349 258.5285 14.59863135361741
Epoch (UTC): 27 August 2016 03:49:49
Eccentricity: 0.0012709
inclination: 98.1818°
perigee height: 684 km
apogee height: 702 km
right ascension of ascending node: 286.6787°
argument of perigee: 101.7349°
revolutions per day: 14.59863135
mean anomaly at epoch: 258.5285°
orbit number at epoch: 36174

The dashed part of the orbit path shows where the satellite is in the earth's shadow,  

DLR